• In Hungary
  • List of Countries
  • For 7 days
  • Water Temperature
  • Satellite Maps
  • Weather Map
  • News
  • Weather Widgets
  • user-avatar
    Login

    Hourly Weather Jarim

    Today, 20 August, Monday

    Time Temperature Precipitation Wind Pressure Humidity
    00:00 +19°C° 0 mm 1 mps 552 mmHg 57%
    01:00 +19°C° 0 mm 1 mps 552 mmHg 57%
    02:00 +19°C° 0 mm 1 mps 552 mmHg 57%
    03:00 +18°C° 0 mm 1 mps 552 mmHg 57%
    04:00 +18°C° 0 mm 1 mps 552 mmHg 58%
    05:00 +18°C° 0 mm 1 mps 552 mmHg 59%
    06:00 +16°C° 0 mm 1 mps 552 mmHg 60%
    07:00 +19°C° 0 mm 1 mps 553 mmHg 55%
    08:00 +20°C° 0 mm 1 mps 554 mmHg 50%
    09:00 +20°C° 0 mm 2 mps 554 mmHg 44%
    10:00 +21°C° 0.5 mm 2 mps 555 mmHg 42%
    11:00 +23°C° 0.5 mm 2 mps 555 mmHg 39%
    12:00 +24°C° 0.5 mm 3 mps 556 mmHg 37%
    13:00 +22°C° 1.9 mm 3 mps 555 mmHg 40%
    14:00 +23°C° 1.9 mm 2 mps 554 mmHg 42%
    15:00 +21°C° 1.9 mm 2 mps 554 mmHg 44%
    16:00 +21°C° 1.5 mm 2 mps 554 mmHg 46%
    17:00 +20°C° 1.5 mm 2 mps 553 mmHg 48%
    18:00 +20°C° 1.5 mm 2 mps 553 mmHg 50%
    19:00 +20°C° 0.1 mm 2 mps 553 mmHg 52%
    20:00 +19°C° 0.1 mm 2 mps 553 mmHg 54%
    21:00 +19°C° 0.1 mm 2 mps 553 mmHg 56%
    22:00 +19°C° 0 mm 2 mps 553 mmHg 57%
    23:00 +18°C° 0 mm 2 mps 553 mmHg 58%

    Tomorrow, 21 August, Tuesday

    Time Temperature Precipitation Wind Pressure Humidity
    00:00 +18°C° 0 mm 2 mps 553 mmHg 60%
    01:00 +18°C° 0 mm 2 mps 553 mmHg 59%
    02:00 +19°C° 0 mm 1 mps 552 mmHg 59%
    03:00 +18°C° 0 mm 1 mps 552 mmHg 58%
    04:00 +18°C° 0 mm 1 mps 552 mmHg 58%
    05:00 +18°C° 0 mm 1 mps 552 mmHg 58%
    06:00 +16°C° 0 mm 1 mps 552 mmHg 58%
    07:00 +19°C° 0 mm 1 mps 553 mmHg 52%
    08:00 +20°C° 0 mm 2 mps 554 mmHg 46%
    09:00 +21°C° 0 mm 2 mps 555 mmHg 40%
    10:00 +23°C° 0.1 mm 2 mps 556 mmHg 36%
    11:00 +24°C° 0.1 mm 3 mps 556 mmHg 32%
    12:00 +26°C° 0.1 mm 3 mps 556 mmHg 28%
    13:00 +26°C° 1 mm 4 mps 556 mmHg 29%
    14:00 +26°C° 1 mm 4 mps 555 mmHg 29%
    15:00 +26°C° 1 mm 5 mps 555 mmHg 29%
    16:00 +25°C° 1 mm 5 mps 554 mmHg 33%
    17:00 +23°C° 1 mm 5 mps 554 mmHg 36%
    18:00 +22°C° 1 mm 5 mps 553 mmHg 39%
    19:00 +21°C° 0.3 mm 4 mps 553 mmHg 43%
    20:00 +20°C° 0.3 mm 3 mps 553 mmHg 47%
    21:00 +20°C° 0.3 mm 2 mps 553 mmHg 51%
    22:00 +20°C° 0 mm 1 mps 553 mmHg 52%
    23:00 +20°C° 0 mm 1 mps 553 mmHg 54%

    Day after tomorrow, 22 August, Wednesday

    Time Temperature Precipitation Wind Pressure Humidity
    00:00 +20°C° 0 mm 1 mps 553 mmHg 55%
    01:00 +19°C° 0 mm 1 mps 552 mmHg 55%
    02:00 +19°C° 0 mm 1 mps 552 mmHg 55%
    03:00 +19°C° 0 mm 1 mps 552 mmHg 55%
    04:00 +18°C° 0 mm 1 mps 552 mmHg 56%
    05:00 +18°C° 0 mm 1 mps 551 mmHg 56%
    06:00 +16°C° 0 mm 1 mps 551 mmHg 57%
    07:00 +19°C° 0 mm 1 mps 553 mmHg 49%
    08:00 +21°C° 0 mm 1 mps 554 mmHg 41%
    09:00 +21°C° 0 mm 2 mps 555 mmHg 34%
    10:00 +23°C° 0 mm 2 mps 555 mmHg 31%
    11:00 +24°C° 0 mm 3 mps 556 mmHg 28%
    12:00 +26°C° 0 mm 3 mps 556 mmHg 26%
    13:00 +26°C° 0.4 mm 4 mps 555 mmHg 27%
    14:00 +26°C° 0.4 mm 4 mps 555 mmHg 28%
    15:00 +26°C° 0.4 mm 4 mps 555 mmHg 29%
    16:00 +25°C° 0.2 mm 4 mps 554 mmHg 33%
    17:00 +23°C° 0.2 mm 4 mps 554 mmHg 37%
    18:00 +22°C° 0.2 mm 3 mps 553 mmHg 40%
    19:00 +21°C° 0 mm 3 mps 553 mmHg 43%
    20:00 +21°C° 0 mm 2 mps 553 mmHg 46%
    21:00 +21°C° 0 mm 1 mps 553 mmHg 50%
    22:00 +21°C° 0 mm 1 mps 553 mmHg 51%
    23:00 +21°C° 0 mm 1 mps 553 mmHg 53%

    23 August, Thursday

    Time Temperature Precipitation Wind Pressure Humidity
    00:00 +20°C° 0 mm 1 mps 553 mmHg 54%
    01:00 +20°C° 0 mm 1 mps 552 mmHg 55%
    02:00 +20°C° 0 mm 1 mps 552 mmHg 55%
    03:00 +19°C° 0 mm 1 mps 551 mmHg 55%
    04:00 +19°C° 0 mm 1 mps 551 mmHg 55%
    05:00 +19°C° 0 mm 1 mps 551 mmHg 56%
    06:00 +18°C° 0 mm 1 mps 551 mmHg 56%
    07:00 +20°C° 0 mm 1 mps 552 mmHg 49%
    08:00 +20°C° 0 mm 2 mps 553 mmHg 43%
    09:00 +23°C° 0 mm 2 mps 555 mmHg 36%
    10:00 +24°C° 0 mm 2 mps 555 mmHg 33%
    11:00 +25°C° 0 mm 3 mps 555 mmHg 30%
    12:00 +26°C° 0 mm 3 mps 555 mmHg 27%
    13:00 +25°C° 0.9 mm 4 mps 555 mmHg 29%
    14:00 +25°C° 0.9 mm 4 mps 554 mmHg 32%
    15:00 +25°C° 0.9 mm 4 mps 553 mmHg 34%
    16:00 +23°C° 1.7 mm 4 mps 553 mmHg 39%
    17:00 +22°C° 1.7 mm 4 mps 553 mmHg 43%
    18:00 +21°C° 1.7 mm 4 mps 552 mmHg 47%
    19:00 +20°C° 0.2 mm 3 mps 552 mmHg 50%
    20:00 +20°C° 0.2 mm 3 mps 553 mmHg 52%
    21:00 +19°C° 0.2 mm 2 mps 553 mmHg 55%
    22:00 +19°C° 0 mm 2 mps 553 mmHg 54%
    23:00 +19°C° 0 mm 2 mps 552 mmHg 54%

    24 August, Friday

    Time Temperature Precipitation Wind Pressure Humidity
    00:00 +19°C° 0 mm 2 mps 552 mmHg 53%
    01:00 +19°C° 0 mm 2 mps 552 mmHg 53%
    02:00 +20°C° 0 mm 1 mps 552 mmHg 53%
    03:00 +19°C° 0 mm 1 mps 551 mmHg 53%
    04:00 +19°C° 0 mm 1 mps 552 mmHg 55%
    05:00 +18°C° 0 mm 1 mps 552 mmHg 58%
    06:00 +18°C° 0 mm 1 mps 552 mmHg 60%
    07:00 +19°C° 0 mm 1 mps 553 mmHg 53%
    08:00 +20°C° 0 mm 1 mps 554 mmHg 47%
    09:00 +21°C° 0 mm 2 mps 555 mmHg 41%
    10:00 +23°C° 0 mm 2 mps 555 mmHg 38%
    11:00 +24°C° 0 mm 2 mps 555 mmHg 35%
    12:00 +25°C° 0 mm 3 mps 555 mmHg 32%
    13:00 +24°C° 0.9 mm 3 mps 554 mmHg 35%
    14:00 +24°C° 0.9 mm 3 mps 554 mmHg 37%
    15:00 +22°C° 0.9 mm 3 mps 553 mmHg 40%
    16:00 +23°C° 1.8 mm 2 mps 553 mmHg 42%
    17:00 +21°C° 1.8 mm 2 mps 553 mmHg 44%
    18:00 +21°C° 1.8 mm 2 mps 553 mmHg 46%
    19:00 +20°C° 0.4 mm 2 mps 553 mmHg 50%
    20:00 +20°C° 0.4 mm 2 mps 553 mmHg 53%
    21:00 +19°C° 0.4 mm 2 mps 553 mmHg 56%
    22:00 +19°C° 0 mm 2 mps 553 mmHg 58%
    23:00 +18°C° 0 mm 2 mps 552 mmHg 59%

    25 August, Saturday

    Time Temperature Precipitation Wind Pressure Humidity
    00:00 +18°C° 0 mm 2 mps 552 mmHg 61%
    01:00 +18°C° 0 mm 2 mps 552 mmHg 61%
    02:00 +19°C° 0 mm 1 mps 551 mmHg 60%
    03:00 +18°C° 0 mm 1 mps 551 mmHg 60%
    04:00 +18°C° 0 mm 1 mps 551 mmHg 61%
    05:00 +18°C° 0 mm 1 mps 552 mmHg 61%
    06:00 +18°C° 0 mm 1 mps 552 mmHg 62%
    07:00 +19°C° 0 mm 1 mps 553 mmHg 57%
    08:00 +19°C° 0 mm 2 mps 554 mmHg 52%
    09:00 +20°C° 0 mm 2 mps 555 mmHg 47%
    10:00 +21°C° 0.1 mm 2 mps 555 mmHg 43%
    11:00 +22°C° 0.1 mm 3 mps 555 mmHg 39%
    12:00 +24°C° 0.1 mm 3 mps 555 mmHg 35%
    13:00 +24°C° 0.5 mm 3 mps 555 mmHg 37%
    14:00 +24°C° 0.5 mm 3 mps 554 mmHg 38%
    15:00 +22°C° 0.5 mm 3 mps 553 mmHg 39%
    16:00 +22°C° 0.4 mm 3 mps 553 mmHg 41%
    17:00 +22°C° 0.4 mm 3 mps 553 mmHg 44%
    18:00 +21°C° 0.4 mm 3 mps 553 mmHg 46%
    19:00 +20°C° 0 mm 3 mps 553 mmHg 50%
    20:00 +20°C° 0 mm 2 mps 553 mmHg 54%
    21:00 +19°C° 0 mm 2 mps 553 mmHg 59%
    22:00 +18°C° 0 mm 2 mps 552 mmHg 60%
    23:00 +18°C° 0 mm 2 mps 552 mmHg 61%
    Show more